Home > Weather > Neuruppin > Past weeks

Flag for Germany Past Weather in Neuruppin, Brandenburg, Germany — Yesterday and Last 2 Weeks

Now
61 °F

Sunny.


Feels Like: 61 °F
Forecast: 58 / 70 °F
Wind: 7 mph from Northwest

Location: Berlin-Tegel

Current Time: Jun 27, 2016 at 8:02:24 AM

Latest Report: Jun 27, 2016 at 7:20 AM


Visibility: 10 mi

Pressure: 30.07 "Hg

Humidity: 68%

Dew Point: 50 °F

Location of NeuruppinLocation

Past Weather in Neuruppin — Graph

°F

Neuruppin Temperature Yesterday

Maximum temperature yesterday: 73 °F (at 3:20 PM)
Minimum temperature yesterday: 61 °F (at 4:50 AM)
Average temperature yesterday: 67 °F

High & Low Weather Summary for the Past Weeks

 TemperatureHumidityPressure
High95 °F (Jun 24, 3:50 PM)94% (Jun 14, 2:20 AM)30.24 "Hg (Jun 14, 2:20 AM)
Low48 °F (Jun 20, 4:50 AM)23% (Jun 24, 4:20 PM)29.47 "Hg (Jun 14, 4:20 PM)
Average67 °F67%29.88 "Hg
* Reported Jun 12 7:20 AM — Jun 27 7:20 AM, Neuruppin, Weather by CustomWeather, © 2016

Note: Actual official high and low records may vary slightly from our data, if they occured in-between our weather recording intervals... More about our weather records

Advertising

Neuruppin Weather History for the Previous 24 Hours

Scroll right to see more
 ConditionsComfort  
Time TempWeatherWind HumidityBarometerVisibility
7:20 AM
Mon, Jun 27
61 °FSunny.7 mph68%30.07 "Hg10 mi
6:50 AM59 °FSunny.6 mph72%30.04 "Hg10 mi
6:20 AM59 °FPassing clouds.3 mph72%30.04 "HgN/A
5:50 AM57 °FPassing clouds.3 mph77%30.04 "HgN/A
5:20 AM57 °FPassing clouds.3 mph72%30.04 "HgN/A
4:50 AM57 °FPassing clouds.6 mph77%30.04 "HgN/A
4:20 AM55 °FClear.5 mph77%30.04 "Hg10 mi
3:50 AM55 °FClear.3 mph82%30.04 "Hg10 mi
3:20 AM55 °FClear.No wind82%30.01 "Hg10 mi
2:50 AM57 °FClear.No wind77%30.01 "Hg10 mi
2:20 AM55 °FClear.2 mph82%30.01 "Hg10 mi
1:50 AM57 °FClear.1 mph77%30.01 "Hg10 mi
1:20 AM59 °FClear.1 mph72%30.01 "Hg10 mi
12:50 AM59 °FClear.1 mph72%30.04 "Hg10 mi
12:20 AM61 °FClear.1 mph68%30.04 "Hg10 mi
11:50 PM
Sun, Jun 26
63 °FClear.1 mph59%30.04 "Hg10 mi
11:20 PM63 °FClear.1 mph59%30.04 "Hg10 mi
10:50 PM64 °FClear.1 mph60%30.01 "Hg10 mi
10:20 PM66 °FPassing clouds.3 mph52%30.01 "HgN/A
9:50 PM66 °FSunny.3 mph49%30.01 "Hg10 mi
9:20 PM68 °FPassing clouds.3 mph43%30.01 "HgN/A
8:50 PM70 °FSunny.5 mph40%30.01 "Hg10 mi
8:20 PM70 °FPassing clouds.3 mph40%30.01 "HgN/A
7:50 PM72 °FPassing clouds.6 mph36%30.01 "HgN/A
7:20 PM72 °FSunny.9 mph36%30.01 "Hg10 mi
6:50 PM72 °FSunny.13 mph33%30.01 "Hg10 mi
6:20 PM73 °FSunny.10 mph33%30.01 "Hg10 mi
5:50 PM73 °FSunny.15 mph33%30.01 "Hg10 mi
5:20 PM73 °FPassing clouds.12 mph33%30.01 "HgN/A
4:50 PM73 °FSunny.14 mph31%30.01 "Hg10 mi
4:20 PM73 °FPassing clouds.13 mph33%30.01 "HgN/A
3:50 PM73 °FSunny.14 mph41%30.01 "Hg10 mi
3:20 PM73 °FPassing clouds.12 mph41%30.01 "HgN/A
2:50 PM70 °FPassing clouds.7 mph46%30.01 "HgN/A
2:20 PM72 °FScattered clouds.7 mph44%30.01 "HgN/A
1:50 PM70 °FScattered clouds.8 mph46%30.04 "HgN/A
1:20 PM70 °FScattered clouds.12 mph46%30.04 "HgN/A
12:50 PM68 °FScattered clouds.14 mph53%30.04 "HgN/A
12:20 PM68 °FScattered clouds.12 mph53%30.04 "HgN/A
11:50 AM68 °FScattered clouds.15 mph56%30.04 "HgN/A
11:20 AM66 °FScattered clouds.16 mph56%30.04 "HgN/A
10:50 AM66 °FScattered clouds.14 mph56%30.01 "HgN/A
10:20 AM66 °FScattered clouds.14 mph60%30.01 "HgN/A
9:50 AM64 °FScattered clouds.14 mph64%30.01 "HgN/A
9:20 AM64 °FScattered clouds.13 mph68%30.01 "HgN/A
8:50 AM63 °FScattered clouds.14 mph73%29.98 "HgN/A
8:20 AM61 °FBroken clouds.12 mph77%29.98 "HgN/A
Weather by CustomWeather, © 2016

See weather overviewHow to use our weather pages